Location: Gombori
(14.9797°N, 2.9419°W)
Time: 10:45:15
(UTC+00:00)

USA 238 DEB - Pass Details

Date: 29 July 2021
Orbit: 980 x 1232 km, 63.4° (Epoch: 20 September)

Event Time Altitude Azimuth Distance (km) Brightness Sun altitude
Rises 19:25:44 0° 343° (NNW) 4,061 7.4 -10.6°
Reaches altitude 10° 19:28:31 10° 348° (NNW) 3,125 6.6 -11.2°
Maximum altitude 19:35:52 54° 64° (ENE) 1,462 4.2 -12.8°
Enters shadow 19:42:08 15° 137° (SE) 2,786 5.3 -14.2°
